#timestamp,LO_Frequency,Hit 
1501398015.3,286046961.2,N
1501398035.2,286046960.3,N
1501398055.9,286046958.2,N
1501398075.7,286046962.4,N
1501398095.6,286046963.9,N
1501398115.4,286046959.9,N
1501398135.2,286046959.8,N
1501398155.1,286046961.2,N
1501398156.0,286046961.2,N
1501398175.8,286046958.5,N
1501398195.6,286046957.7,N
1501398215.4,286046955.5,N
1501398235.3,286046957.3,N
1501398255.1,286046959.3,N
1501398275.8,286046957.6,N
1501398295.7,286046957.9,N
1501398315.5,286046955.7,N
1501398335.3,286046957.7,N
1501398355.2,286046957.6,N
1501398375.9,286046956.2,N
1501398395.7,286046953.8,N
1501398415.6,286046953.5,N
1501398435.4,286046956.0,N
1501398455.2,286046955.2,N
1501398475.0,286046955.2,N
1501398475.9,286046955.2,N
1501398495.8,286046957.2,N
1501398515.6,286046956.7,N
1501398535.4,286046956.1,N
1501398555.3,286046952.5,N
1501398575.1,286046952.3,N
1501398595.8,286046954.1,N
1501398615.7,286046954.8,N
1501398635.5,286046950.1,N
1501398655.3,286046950.5,N
1501398675.2,286046951.7,N
1501398695.9,286046950.7,N
1501398715.7,286046952.7,N
1501398735.6,286046951.0,N
1501398755.4,286046948.5,N
1501398775.2,286046950.3,N
1501398795.0,286046950.2,N
1501398795.9,286046950.2,N
1501398815.8,286046949.0,N
1501398835.7,286046947.2,N
1501398855.5,286046949.5,N
1501398875.3,286046947.0,N
1501398895.2,286046947.2,N
1501398915.0,286046947.3,N
1501398915.9,286046947.3,N
1501398935.7,286046949.4,N
1501398955.6,286046947.3,N
1501398975.4,286046946.2,N
1501398995.2,286046945.7,N
1501399015.1,286046948.4,N
1501399016.0,286046948.4,N
1501399035.8,286046946.6,N
1501399055.6,286046946.6,N
1501399075.5,286046945.5,N
1501399095.3,286046944.2,N
1501399115.1,286046944.7,N
1501399135.8,286046946.1,N
1501399155.7,286046944.3,N
1501399175.5,286046946.6,N
1501399195.3,286046946.8,N
1501399215.2,286046945.2,N
1501399235.9,286046944.5,N
1501399255.7,286046944.2,Y
1501399275.6,286046961.5,N
1501399295.4,286046964.4,N
1501399315.2,286046960.1,N
1501399335.1,286046964.3,N
1501399336.0,286046964.3,N
1501399355.8,286046959.8,N
1501399375.6,286046958.4,N
1501399395.5,286046960.1,N
1501399415.3,286046963.4,N
1501399435.1,286046962.5,N
1501399455.9,286046961.4,N
1501399475.7,286046963.1,N
1501399495.5,286046963.0,N
1501399515.3,286046963.3,N
1501399535.2,286046964.1,N
1501399555.9,286046959.7,N
1501399575.7,286046959.8,N
1501399595.6,286046963.9,N
1501399615.4,286046963.6,N
1501399635.2,286046962.5,N
1501399655.1,286046962.7,N
1501399656.0,286046962.7,N
1501399675.8,286046958.5,N
1501399695.6,286046959.5,N
1501399715.5,286046959.5,N
1501399735.3,286046959.2,N
1501399755.1,286046957.8,N
1501399775.8,286046954.9,N
1501399795.7,286046957.5,N
1501399815.5,286046956.2,N
1501399835.3,286046955.2,N
1501399855.2,286046953.9,N
1501399875.9,286046951.7,Y
1501399895.7,286046971.7,N
1501399915.6,286046971.2,N
1501399935.4,286046973.6,N
1501399955.2,286046973.6,N
1501399975.1,286046973.1,N
1501399976.0,286046973.1,N
1501399995.8,286046972.2,N
1501400015.6,286046972.8,N
1501400035.5,286046975.3,N
1501400055.3,286046973.2,N
1501400075.1,286046972.6,N
1501400095.8,286046971.7,N
1501400115.7,286046971.8,N
1501400135.5,286046969.8,N
1501400155.3,286046972.2,N
1501400175.2,286046970.9,N
1501400195.9,286046969.8,N
1501400215.7,286046968.0,N
1501400235.6,286046970.2,N
1501400255.4,286046968.0,N
1501400275.2,286046969.0,N
1501400295.1,286046968.3,N
1501400296.0,286046968.3,N
1501400315.8,286046966.3,N
1501400335.6,286046966.6,N
1501400355.4,286046969.1,N
1501400375.3,286046968.4,N
1501400395.1,286046968.7,N
1501400415.8,286046967.6,N
1501400435.7,286046966.3,N
1501400455.5,286046967.2,N
1501400475.4,286046964.9,N
1501400495.2,286046964.7,N
1501400515.0,286046965.5,N
1501400515.9,286046965.5,N
1501400535.7,286046963.1,N
1501400555.6,286046962.0,N
1501400575.4,286046962.2,N
1501400595.2,286046962.0,N
1501400615.1,286046961.8,N
1501400616.0,286046961.8,N
1501400635.8,286046963.5,N
1501400655.6,286046963.0,N
1501400675.5,286046963.5,N
1501400695.3,286046963.5,N
1501400715.1,286046965.3,N
1501400735.9,286046965.6,N
1501400755.7,286046964.2,N
1501400775.5,286046964.4,N
1501400795.3,286046964.3,N
1501400815.2,286046963.4,N
1501400835.0,286046963.6,N
1501400835.9,286046963.6,N
1501400855.7,286046962.4,N
1501400875.6,286046961.6,N
1501400895.4,286046964.2,N
1501400915.2,286046963.4,N
1501400935.1,286046962.7,N
1501400936.0,286046962.7,N
1501400955.8,286046959.9,N
1501400975.6,286046961.7,N
1501400995.5,286046961.3,N
1501401015.3,286046960.3,N
1501401035.1,286046962.8,N
1501401055.9,286046961.6,N
1501401075.7,286046961.9,N
1501401095.5,286046959.7,N
1501401115.3,286046961.1,N
1501401135.2,286046959.8,N
1501401155.0,286046960.6,N
1501401155.9,286046960.6,N
1501401175.7,286046960.0,N
1501401195.6,286046960.1,N
1501401215.4,286046959.9,N
1501401235.2,286046960.6,N
1501401255.1,286046958.2,N
1501401256.0,286046958.2,N
1501401275.8,286046959.0,N
1501401295.6,286046959.4,N
1501401315.5,286046959.5,N
1501401335.3,286046957.3,N
1501401355.1,286046957.2,N
1501401375.9,286046957.0,N
1501401395.7,286046956.5,N
1501401415.5,286046959.2,N
1501401435.3,286046959.5,N
1501401455.2,286046956.7,N
1501401475.0,286046956.6,N
1501401475.9,286046956.6,N
1501401495.7,286046959.5,N
1501401515.6,286046956.8,N
1501401535.4,286046957.8,N
1501401555.2,286046956.8,N
1501401575.1,286046955.4,N
1501401576.0,286046955.4,N
1501401595.8,286046957.9,N
